Regional Weather Roundup
Issued by NWS

Home | Current Version | Previous Version | Graphics & Text | Print | Product List | Glossary On
Versions: 1 2 3 4 5 6 7 8 9 10 11 12 13 14 15 16 17 18 19 20 21 22 23 24 25 26 27
000
ASUS45 KTFX 231110
RWRMT
MONTANA REGIONAL WEATHER ROUNDUP
NATIONAL WEATHER SERVICE GREAT FALLS MT
500 AM MDT TUE AUG 23 2016

NOTE: "FAIR" INDICATES FEW OR NO CLOUDS BELOW 12000 FEET WITH NO
SIGNIFICANT WEATHER AND/OR OBSTRUCTIONS TO VISIBILITY.

MTZ001>007-043-231200-
WEST OF THE DIVIDE

CITY           SKY/WX    TMP DP  RH WIND       PRES   REMARKS
KALISPELL      MOCLDY    47  39  74 N7        30.01R
MISSOULA       PTCLDY    46  32  58 CALM      30.08R
BUTTE          CLEAR     44  27  51 CALM      30.10R
MULLAN PASS    MOCLDY    44  29  55 VRB6      30.11S
DEER LODGE       N/A     43  28  56 W5        30.11R
EUREKA           N/A     52  36  54 CALM      30.01R
HAMILTON         N/A     46  32  57 CALM      30.09R
LIBBY            N/A     46  34  61 CALM      30.03R
PLAINS           N/A     46  33  60 CALM      30.04R
$$

MTZ008-052>055-231200-
SOUTHWEST MONTANA

CITY           SKY/WX    TMP DP  RH WIND       PRES   REMARKS
BOZEMAN        PTCLDY    51  34  52 SW5       30.05R
DILLON         CLEAR     47  24  40 S12       30.06R
W YELLOWSTONE  CLOUDY    36  14  41 CALM      30.11R
ENNIS          CLOUDY    43  18  36 N9        30.11R
THREE FORKS      N/A     50  14  23 CALM      30.04R
TWIN BRIDGES     N/A     43  15  32 E3        30.05R
$$

MTZ009-010-012-014-046-048-049-054-231200-
EAST SLOPES AND CENTRAL MONTANA

CITY           SKY/WX    TMP DP  RH WIND       PRES   REMARKS
CUT BANK       CLOUDY    50  38  63 CALM      29.94S
GREAT FALLS    CLOUDY    51  29  42 SW13      29.96R
MALMSTROM AFB  MOCLDY    55  30  38 SW9       29.96R
HELENA         CLEAR     55  29  36 VRB3      30.03R
CHOTEAU          N/A     57  32  38 W7        29.97S
CONRAD           N/A     58  39  49 W5        29.97R
$$

MTZ011-013-016-021-045-047-050-051-231200-
NORTH CENTRAL MONTANA

CITY           SKY/WX    TMP DP  RH WIND       PRES   REMARKS
HAVRE          CLOUDY    52  39  61 SW12      29.89R
LEWISTOWN      PTCLDY    57  31  37 W13       29.95R
N BAR RANCH      N/A     52  27  37 CALM      29.97S
CHINOOK          N/A     52  39  62 W7        29.88R
$$

MTZ017>020-022>027-061-062-231200-
NORTHEAST MONTANA

CITY           SKY/WX    TMP DP  RH WIND       PRES   REMARKS
GLASGOW        PTCLDY    53  35  50 W9        29.82R
JORDAN           N/A     50  34  54 W3        29.85R
SIDNEY         MOCLDY    64  43  46 NW17      29.73R
WOLF POINT     CLOUDY    58  35  42 W9        29.79R
POPLAR           N/A     63  34  34 NW3       29.78R
SCOBEY           N/A     56  35  45 CALM      29.80R
$$

MTZ028>42-056>058-231200-
SOUTHCENTRAL AND SOUTHEAST MONTANA

CITY           SKY/WX    TMP DP  RH WIND       PRES   REMARKS
BAKER          MOCLDY    59  38  45 W16       29.78R
BILLINGS       PTCLDY    56  29  35 W10       29.95R
LIVINGSTON     PTCLDY    55  25  31 W8        30.02R
MILES CITY     CLEAR     61  30  31 NW10      29.84R
EKALAKA          N/A     57  33  40 W6        29.82R
FORSYTH          N/A     59  34  38 W9        29.87R
LAUREL           N/A     52  28  39 CALM      29.95R
ROUNDUP          N/A     53  28  38 SW6       29.86R
$$

REGIONAL REPORTS...DAKOTAS

CITY           SKY/WX    TMP DP  RH WIND       PRES   REMARKS
WILLISTON      CLOUDY    67  36  31 N17       29.68F
MINOT          FOG       66  66 100 W12       29.60R VSB 3/4
DICKINSON      CLOUDY    58  39  49 NW12      29.67R
CROSBY           N/A     57  41  54 NW8       29.72R
BISMARCK       CLEAR     59  58  96 NW7       29.60R
GRAND FORKS    CLOUDY    70  64  81 S21       29.61S
FARGO          CLOUDY    70  61  73 SE17G25   29.67S
BUFFALO SD       N/A     63  38  39 NW24      29.64S
RAPID CITY     CLEAR     53  46  77 N5        29.70R
$$

REGIONAL REPORTS...WYOMING/IDAHO/WASHINGTON

CITY           SKY/WX    TMP DP  RH WIND       PRES   REMARKS
GILLETTE       CLEAR     60  29  30 NW15      29.91R
SHERIDAN       CLOUDY    56  30  37 NW10      29.95R
BUFFALO WY     CLEAR     63  19  18 NW14      29.98R
CODY           CLEAR     57  25  28 NW7       30.00R
YELLOWSTONE LA   N/A     45  14  28 NW6       30.17R
IDAHO FALLS    CLEAR     54  29  38 S10       30.05R
SALMON         CLEAR    N/A N/A N/A MISG      30.09R
BOISE          CLEAR     56  32  40 CALM      30.03R
SPOKANE        MOCLDY    53  36  52 SW6       30.06R
$$

REGIONAL REPORTS...ALBERTA

CITY           SKY/WX    TMP DP  RH WIND       PRES   REMARKS
EDMONTON       CLOUDY    55  54  94 N15       29.81R
CALGARY        CLOUDY    52  43  71 NW25G41   29.88R
LETHBRIDGE     CLOUDY    55  45  67 NW24G35   29.92R
MEDICINE HAT   MOCLDY    54  46  76 W18       29.79R
$$

REGIONAL REPORTS...SASKATCHEWAN

CITY           SKY/WX    TMP DP  RH WIND       PRES   REMARKS
SWIFT CURRENT  CLOUDY    50  45  81 SW20      29.70F
REGINA         MOCLDY    52  46  82 NW7       29.72R
SASKATOON      MOCLDY    52  48  87 S7        29.67S
$$




USA.gov is the U.S. government's official web portal to all federal, state and local government web resources and services.